Regional Weather Roundup
Issued by NWS

Home | Current Version | Previous Version | Text Only | Print | Product List | Glossary On
Versions: 1 2 3 4 5 6 7 8 9 10 11 12 13 14 15 16 17 18 19 20 21 22 23 24 25 26 27 28 29 30 31 32 33 34 35 36 37 38 39 40 41 42 43 44 45 46 47 48 49 50
000
ASCA44 KEWX 220720
RWRMX

LATIN AMERICA AND CARIBBEAN REGIONAL WEATHER ROUNDUP
NATIONAL WEATHER SERVICE AUSTIN/SAN ANTONIO TX
200 AM CDT SUN OCT 22 2017

NOTE: "FAIR" INDICATED FEW OR NO CLOUDS BELOW 12,000 FEET WITH NO
SIGNIFICANT WEATHER AND/OR OBSTRUCTIONS TO VISIBILITY.

BAJA CALIFORNIA

CITY           SKY/WX    TMP DP  RH WIND       PRES   REMARKS
MEXICALI       CLEAR     66  28  24 NW8       30.09S
S.J. DEL CABO    N/A    N/A N/A N/A MISG        N/A
TIJUANA        CLEAR     63  59  88 CALM      30.12R

NORTHWESTERN MEXICO

CITY           SKY/WX    TMP DP  RH WIND       PRES   REMARKS
HERMOSILLO     CLEAR     73  54  49 CALM      29.99S

NORTHEASTERN MEXICO

CITY           SKY/WX    TMP DP  RH WIND       PRES   REMARKS
MONCLOVA         N/A    N/A N/A N/A MISG        N/A
MONTERREY      CLEAR     70  66  88 NE5       29.93S
REYNOSA          N/A    N/A N/A N/A MISG        N/A
CD. VICTORIA     N/A    N/A N/A N/A MISG        N/A

WESTERN MEXICO

CITY           SKY/WX    TMP DP  RH WIND       PRES   REMARKS
AGUASCALIENTES   N/A    N/A N/A N/A MISG        N/A
COLIMA           N/A    N/A N/A N/A MISG        N/A
GUADALAJARA    CLEAR     55  50  82 SW3       30.18F
MAZATLAN       PTCLDY    79  77  94 CALM      29.88S
P. VALLARTA    CLEAR     79  79 100 CALM      29.88S
URUAPAN          N/A    N/A N/A N/A MISG        N/A
ZACATECAS      CLEAR     46  37  71 CALM      30.29S

CENTRAL MEXICO

CITY           SKY/WX    TMP DP  RH WIND       PRES   REMARKS
CUERNAVACA       N/A    N/A N/A N/A MISG        N/A
MEXICO CITY    PTCLDY    61  43  51 NE3       30.32S
MORELIA        MOCLDY    55  55 100 CALM      30.23S
POZA RICA        N/A    N/A N/A N/A MISG        N/A
QUERETARO      PTCLDY    63  54  72 CALM      30.29
S. LUIS POTOSI CLEAR     57  45  62 CALM      30.21S
TOLUCA         PTCLDY    46  45  93 NE7       30.38S WCI  43

SOUTHERN MEXICO

CITY           SKY/WX    TMP DP  RH WIND       PRES   REMARKS
ACAPULCO       PTCLDY    81  79  94 CALM      29.83F
B. DE HUATULCO   N/A    N/A N/A N/A MISG        N/A
P. ESCONDIDO     N/A    N/A N/A N/A MISG        N/A
VERACRUZ         N/A    N/A N/A N/A MISG        N/A

YUCATAN PENINSULA

CITY           SKY/WX    TMP DP  RH WIND       PRES   REMARKS
CAMPECHE         N/A    N/A N/A N/A MISG        N/A
CANCUN         MOCLDY    79  77  94 E6        29.89F
CHETUMAL       MOCLDY    75  75 100 CALM      29.85F
CD. DEL CARMEN   N/A    N/A N/A N/A MISG        N/A
COZUMEL          N/A    N/A N/A N/A MISG        N/A
MERIDA         MOCLDY    77  75  94 CALM      29.90F
MINATITLAN       N/A    N/A N/A N/A MISG        N/A
TAPACHULA      MOCLDY    75  75 100 CALM      29.87R

CENTRAL AMERICA

CITY           SKY/WX    TMP DP  RH WIND       PRES   REMARKS
MANAGUA        MOSUNNY   79  75  89 SE5       29.77F

CARIBBEAN

CITY           SKY/WX    TMP DP  RH WIND       PRES   REMARKS
CURACAO        PTCLDY    82  75  78 SE15      29.86F
KINGSTON       PTCLDY    82  72  69 NW5       29.89F
NASSAU         MOCLDY    82  75  78 E9        30.07F
SAN JUAN       PTCLDY    81  73  78 SE7       30.01F
SANTO DOMINGO  PTCLDY    75  73  94 NE5       29.97F
ST. THOMAS       N/A     79  75  89 E10       30.01

$$




USA.gov is the U.S. government's official web portal to all federal, state and local government web resources and services.